Weather History for Wahpeton, ND

Change the Weather History Date:

Thursday, May 16, 2013

  Actual Average (KFFM) Record (KFFM)
Temperature  
Mean Temperature 61 °F -  
Max Temperature 78 °F 70 °F 87 °F (1972)
Min Temperature 44 °F 44 °F 26 °F (2014)
Degree Days  
Heating Degree Days 4    
Growing Degree Days 11 (Base 50)    
Moisture  
Dew Point 34 °F    
Average Humidity 33    
Maximum Humidity 62    
Minimum Humidity 18    
Precipitation  
Precipitation 0.00 in - - ()
Sea Level Pressure  
Sea Level Pressure 29.87 in    
Wind  
Wind Speed 8 mph (East)    
Max Wind Speed 20 mph    
Max Gust Speed 29 mph    
Visibility 10 miles    
Events      
Averages and records for this station are not official NWS values.
T = Trace of Precipitation, MM = Missing Value Source: NWS Daily Summary

Daily Weather History Graph

Daily Weather History Graph

Search for Another Location

Airport:

Trip Planner

Search our weather history database for the weather conditions in past years. The results will help you decide how hot, cold, wet, or windy it might be!

Date:

Astronomy

May. 16, 2013 Rise Set
Actual Time 5:52 AM CDT 8:54 PM CDT
Civil Twilight 5:16 AM CDT 9:29 PM CDT
Nautical Twilight 4:30 AM CDT 10:15 PM CDT
Astronomical Twilight 3:35 AM CDT 11:11 PM CDT
Moon 11:32 AM CDT (5/16) 1:10 AM CDT (5/16)
Length of Visible Light 16h 13m
Length of Day
15h 02m
Waxing Crescent, 36% of the Moon is Illuminated
May 16
Waxing Crescent
May 17
First Quarter
May 24
Full
May 31
Last Quarter
Jun 8
New

Hourly Weather History & Observations

Time (CDT) Temp. Dew Point Humidity Pressure Visibility Wind Dir Wind Speed Gust Speed Precip Events Conditions
12:15 AM 60.8 °F 33.8 °F 36% 29.86 in 10.0 mi NE 6.9 mph - N/A   Clear
12:35 AM 60.8 °F 33.8 °F 36% 29.86 in 10.0 mi NE 9.2 mph - N/A   Clear
12:55 AM 62.6 °F 33.8 °F 34% 29.86 in 10.0 mi ENE 8.1 mph - N/A   Clear
1:15 AM 60.8 °F 33.8 °F 36% 29.86 in 10.0 mi ENE 6.9 mph - N/A   Clear
1:35 AM 60.8 °F 33.8 °F 36% 29.86 in 10.0 mi East 6.9 mph - N/A   Clear
1:55 AM 59.0 °F 35.6 °F 42% 29.87 in 10.0 mi East 4.6 mph - N/A   Clear
2:15 AM 55.4 °F 33.8 °F 44% 29.87 in 10.0 mi SE 6.9 mph - N/A   Clear
2:35 AM 55.4 °F 33.8 °F 44% 29.87 in 10.0 mi SE 5.8 mph - N/A   Clear
2:55 AM 57.2 °F 33.8 °F 41% 29.87 in 10.0 mi ESE 5.8 mph - N/A   Clear
3:15 AM 57.2 °F 33.8 °F 41% 29.87 in 10.0 mi SE 4.6 mph - N/A   Clear
3:35 AM 55.4 °F 35.6 °F 47% 29.87 in 10.0 mi ESE 3.5 mph - N/A   Clear
3:55 AM 55.4 °F 35.6 °F 47% 29.87 in 10.0 mi ESE 4.6 mph - N/A   Clear
4:15 AM 55.4 °F 35.6 °F 47% 29.88 in 10.0 mi ESE 3.5 mph - N/A   Clear
4:35 AM 50.0 °F 33.8 °F 54% 29.89 in 10.0 mi Calm Calm - N/A   Clear
4:55 AM 51.8 °F 35.6 °F 54% 29.90 in 10.0 mi Calm Calm - N/A   Clear
5:15 AM 48.2 °F 33.8 °F 58% 29.89 in 10.0 mi North 4.6 mph - N/A   Clear
5:35 AM 46.4 °F 33.8 °F 62% 29.90 in 10.0 mi Calm Calm - N/A   Clear
5:55 AM 46.4 °F 32.0 °F 57% 29.90 in 10.0 mi Calm Calm - N/A   Clear
6:15 AM 44.6 °F 32.0 °F 61% 29.91 in 10.0 mi Calm Calm - N/A   Clear
6:35 AM 44.6 °F 32.0 °F 61% 29.91 in 10.0 mi Calm Calm - N/A   Clear
6:55 AM 48.2 °F 35.6 °F 62% 29.91 in 10.0 mi Calm Calm - N/A   Clear
7:15 AM 51.8 °F 37.4 °F 58% 29.91 in 10.0 mi Calm Calm - N/A   Clear
7:35 AM 55.4 °F 37.4 °F 51% 29.91 in 10.0 mi ESE 3.5 mph - N/A   Clear
7:55 AM 59.0 °F 37.4 °F 45% 29.92 in 10.0 mi ESE 6.9 mph - N/A   Clear
8:15 AM 62.6 °F 37.4 °F 39% 29.92 in 10.0 mi ESE 8.1 mph - N/A   Clear
8:35 AM 62.6 °F 35.6 °F 37% 29.92 in 10.0 mi ESE 12.7 mph - N/A   Clear
8:55 AM 64.4 °F 35.6 °F 34% 29.92 in 10.0 mi ESE 12.7 mph - N/A   Clear
9:15 AM 68.0 °F 35.6 °F 30% 29.92 in 10.0 mi ESE 10.4 mph - N/A   Scattered Clouds
9:35 AM 69.8 °F 35.6 °F 28% 29.91 in 10.0 mi ESE 10.4 mph 16.1 mph N/A   Scattered Clouds
9:55 AM 69.8 °F 33.8 °F 27% 29.91 in 10.0 mi SE 10.4 mph - N/A   Clear
10:15 AM 73.4 °F 33.8 °F 23% 29.90 in 10.0 mi SE 11.5 mph - N/A   Clear
10:35 AM 75.2 °F 33.8 °F 22% 29.89 in 10.0 mi SE 11.5 mph 18.4 mph N/A   Clear
10:55 AM 75.2 °F 33.8 °F 22% 29.88 in 10.0 mi ESE 11.5 mph - N/A   Clear
11:15 AM 77.0 °F 33.8 °F 21% 29.88 in 10.0 mi ESE 10.4 mph 18.4 mph N/A   Clear
11:35 AM 77.0 °F 32.0 °F 19% 29.88 in 10.0 mi SE 11.5 mph 18.4 mph N/A   Clear
11:55 AM 78.8 °F 32.0 °F 18% 29.87 in 10.0 mi SE 12.7 mph - N/A   Clear
12:15 PM 78.8 °F 32.0 °F 18% 29.87 in 10.0 mi SSE 8.1 mph - N/A   Scattered Clouds
12:35 PM 78.8 °F 32.0 °F 18% 29.87 in 10.0 mi SSE 15.0 mph 19.6 mph N/A   Scattered Clouds
1:35 PM 77.0 °F 32.0 °F 19% 29.87 in 10.0 mi East 9.2 mph - N/A   Overcast
1:55 PM 77.0 °F 32.0 °F 19% 29.87 in 10.0 mi East 6.9 mph - N/A   Overcast
2:15 PM 77.0 °F 32.0 °F 19% 29.87 in 10.0 mi ENE 9.2 mph - N/A   Scattered Clouds
2:35 PM 77.0 °F 32.0 °F 19% 29.87 in 10.0 mi East 5.8 mph - N/A   Scattered Clouds
2:55 PM 77.0 °F 32.0 °F 19% 29.87 in 10.0 mi East 8.1 mph - N/A   Overcast
3:15 PM 75.2 °F 32.0 °F 21% 29.87 in 10.0 mi East 8.1 mph 17.3 mph N/A   Overcast
3:35 PM 75.2 °F 32.0 °F 21% 29.87 in 10.0 mi East 9.2 mph - N/A   Overcast
3:55 PM 75.2 °F 32.0 °F 21% 29.86 in 10.0 mi ENE 10.4 mph - N/A   Overcast
4:35 PM 73.4 °F 33.8 °F 23% 29.87 in 10.0 mi ENE 8.1 mph - N/A   Overcast
4:55 PM 73.4 °F 33.8 °F 23% 29.87 in 10.0 mi NE 11.5 mph - N/A   Mostly Cloudy
5:15 PM 71.6 °F 33.8 °F 25% 29.87 in 10.0 mi NE 17.3 mph - N/A   Mostly Cloudy
5:35 PM 71.6 °F 33.8 °F 25% 29.86 in 10.0 mi NE 15.0 mph 20.7 mph N/A   Mostly Cloudy
5:55 PM 71.6 °F 33.8 °F 25% 29.85 in 10.0 mi NE 17.3 mph 23.0 mph N/A   Mostly Cloudy
6:15 PM 71.6 °F 35.6 °F 27% 29.84 in 10.0 mi NE 18.4 mph 25.3 mph N/A   Mostly Cloudy
6:35 PM 71.6 °F 35.6 °F 27% 29.84 in 10.0 mi NE 18.4 mph 23.0 mph N/A   Overcast
6:55 PM 69.8 °F 35.6 °F 28% 29.83 in 10.0 mi NE 19.6 mph 28.8 mph N/A   Scattered Clouds
7:15 PM 69.8 °F 35.6 °F 28% 29.83 in 10.0 mi NE 16.1 mph 24.2 mph N/A   Mostly Cloudy
7:35 PM 69.8 °F 35.6 °F 28% 29.83 in 10.0 mi NE 13.8 mph 21.9 mph N/A   Overcast
7:55 PM 69.8 °F 35.6 °F 28% 29.84 in 10.0 mi NE 9.2 mph - N/A   Overcast
8:15 PM 68.0 °F 35.6 °F 30% 29.84 in 10.0 mi NE 12.7 mph 17.3 mph N/A   Overcast
8:35 PM 68.0 °F 35.6 °F 30% 29.84 in 10.0 mi ENE 11.5 mph 16.1 mph N/A   Overcast
8:55 PM 68.0 °F 33.8 °F 28% 29.84 in 10.0 mi ENE 12.7 mph - N/A   Overcast
9:15 PM 68.0 °F 33.8 °F 28% 29.84 in 10.0 mi ENE 10.4 mph - N/A   Overcast
9:55 PM 68.0 °F 33.8 °F 28% 29.87 in 10.0 mi NE 8.1 mph - N/A   Overcast
10:15 PM 68.0 °F 33.8 °F 28% 29.87 in 10.0 mi East 9.2 mph - N/A   Overcast
10:35 PM 68.0 °F 32.0 °F 26% 29.86 in 10.0 mi East 11.5 mph - N/A   Mostly Cloudy
10:55 PM 68.0 °F 32.0 °F 26% 29.85 in 10.0 mi ESE 11.5 mph - N/A   Mostly Cloudy
11:15 PM 68.0 °F 32.0 °F 26% 29.86 in 10.0 mi ESE 10.4 mph - N/A   Scattered Clouds
11:35 PM 68.0 °F 32.0 °F 26% 29.87 in 10.0 mi ESE 10.4 mph - N/A   Mostly Cloudy
11:55 PM 68.0 °F 32.0 °F 26% 29.87 in 10.0 mi ESE 10.4 mph - N/A   Overcast